Regional Weather Roundup
Issued by NWS

Home | Current Version | Previous Version | Text Only | Print | Product List | Glossary Off
Versions: 1 2 3 4 5 6 7 8 9 10 11 12 13 14 15 16 17 18 19 20 21 22 23 24 25 26 27 28 29 30 31 32 33 34 35 36 37 38 39 40 41 42 43 44 45 46 47 48 49 50

000
ASUS43 KLSX 251907
RWRMO

WEATHER SUMMARY FOR MISSOURI
NATIONAL WEATHER SERVICE SPRINGFIELD MO
100 PM CST SUN JAN 25 2015

NOTE: "FAIR" INDICATES FEW OR NO CLOUDS BELOW 12,000 FEET WITH NO
       SIGNIFICANT WEATHER AND/OR OBSTRUCTIONS TO VISIBILITY.
       CURRENT SKY AND/OR WEATHER CONDITIONS ARE NOT AVAILABLE FOR
       CHILLICOTHE AND FARMINGTON.

MOZ001>031-035>038-043-044-053-054-252000-
...NORTHERN AND WESTERN MISSOURI...

CITY           SKY/WX    TMP DP  RH WIND       PRES   REMARKS
KANSAS CTY INT CLOUDY    38  34  85 N23G30    29.84R WCI  27
KANSAS C DTWN  CLOUDY    40  34  79 N15G28    29.84R
LEE`S SUMMIT   CLOUDY    38  33  82 N24G31    29.82R WCI  27
ST JOSEPH      CLOUDY    38  34  85 N23G31    29.89R WCI  27
CHILLICOTHE      N/A     37  33  85 N12G28    29.82R WCI  29
KIRKSVILLE     LGT SNOW  35  33  92 N21G31    29.77R FOG     WCI  24

$$
MOZ066>068-077>081-088>096-101>105-252000-
...SOUTHWEST MISSOURI...

CITY           SKY/WX    TMP DP  RH WIND       PRES   REMARKS
SPRINGFIELD    LGT RAIN  38  34  85 NW22G29   29.77R FOG     WCI  27
JOPLIN         CLOUDY    42  31  64 NW20G29   29.86R

$$
MOZ032>034-039>042-045>050-055>058-069>072-252000-
...CENTRAL MISSOURI...

CITY           SKY/WX    TMP DP  RH WIND       PRES   REMARKS
COLUMBIA       CLOUDY    39  39 100 W14G23    29.66R FOG
JEFFERSON CITY CLOUDY    40  37  89 NW15      29.68R
ROLLA          CLOUDY    41  37  86 W14G26    29.63S
SEDALIA        LGT RAIN  38  34  85 NW20G25   29.74R FOG     WCI  28
WHITEMAN AFB   LGT RAIN  38  35  90 NW17G24   29.76R WCI  28
WARRENSBURG    CLOUDY    37  34  87 NW20G25   29.79R WCI  27
OSAGE BEACH    CLOUDY    39  36  87 W7        29.71R

$$
MOZ051-052-059>065-252000-
...EAST CENTRAL MISSOURI...

CITY           SKY/WX    TMP DP  RH WIND       PRES   REMARKS
ST LOUIS INTL  LGT RAIN  47  43  86 W12       29.59S FOG
SPIRIT OF STL  CLOUDY    45  42  89 W10       29.59F
ST CHARLES     RAIN      45  43  93 N9        29.60R FOG

$$
MOZ072>076-082>087-097>100-106>115-252000-
...SOUTH CENTRAL AND SOUTHEAST MISSOURI...

CITY           SKY/WX    TMP DP  RH WIND       PRES   REMARKS
CAPE GIRARDEAU RAIN      43  43 100 SW9       29.60F FOG
FARMINGTON     CLOUDY    45  43  93 MISG      29.61F
POPLAR BLUFF   CLOUDY    46  44  93 SW6       29.61F
WEST PLAINS    CLOUDY    45  37  73 W14G24    29.67R

$$


USA.gov is the U.S. government's official web portal to all federal, state and local government web resources and services.